www.pogodaiklimat.ru

Погода и климат >> Архив погоды >> Германия >> Leuchtturm Alte Weser


ПОГОДА в Leuchtturm Alte Weser

  • Прогноз погоды в Leuchtturm Alte Weser
  • Монитор погоды в Leuchtturm Alte Weser
  • Климат города

АРХИВ ПОГОДЫ в Leuchtturm Alte Weser

Время (UTC), дата Ветер
(напр.,м/с)
 
Видим.   Явления Облачность Т
(С)
Тd
(С)
f
(%)
Тe
(С)
Тes
(С)
Комфортность P
(гПа)
Po
(гПа)
Тmin
(С)
Tmax
(С)
R
(мм)
R24
(мм)
S
(см)
13 8.12 ЮЗ 11
{16}
н/о н/о +3.3 +1.3 87 -4 -4 1000.4 996.6
14 8.12 З 11
{18}
н/о н/о +5.5 -0.8 64 -1 -1 1000.6 996.9
15 8.12 З 15
{18}
н/о н/о +6.0 -2.7 54 -1 -1 1000.7 997.0
16 8.12 З 17
{20}
н/о н/о +4.8 +0.8 75 -3 -3 1000.9 997.1
17 8.12 ЮЗ 14
{19}
н/о н/о +4.3 +0.4 76 -3 -3 1001.4 997.6
18 8.12 ЮЗ 14
{20}
н/о н/о +2.3 +1.5 94 -6 -6 1001.7 997.9 +1.3 +6.2
19 8.12 ЮЗ 13
{17}
н/о н/о +1.4 +1.2 99 -7 -7 1002.3 998.5
20 8.12 ЮЗ 11
{15}
н/о н/о +1.1 +1.1 100 -7 -7 1002.6 998.7
21 8.12 ЮЗ 7
{18}
н/о н/о +2.6 +0.8 88 -4 -4 1002.5 998.7
22 8.12 ЮЗ 12
{13}
н/о н/о +3.0 +1.1 87 -5 -5 1002.1 998.3
23 8.12 ЮЗ 12
{20}
н/о н/о +3.5 +1.7 88 -4 -4 1002.0 998.2
00 9.12 З 18
{20}
н/о н/о +5.5 +1.1 73 -2 -2 1001.2 997.4
01 9.12 ЮЗ 16
{24}
н/о н/о +3.7 +1.9 88 -5 -5 1000.6 996.8
02 9.12 З 15
{21}
н/о н/о +5.2 +2.5 83 -2 -2 1000.4 996.7
03 9.12 СЗ 14
{24}
н/о н/о +6.0 +2.2 77 -1 -1 1000.3 996.6
04 9.12 З 9
{17}
н/о н/о +5.8 +2.9 82 0 0 1000.8 997.0
05 9.12 З 12
{18}
н/о н/о +6.9 +2.4 73 +1 +1 1000.9 997.2
06 9.12 СЗ 15
{24}
н/о н/о +6.6 +0.8 66 0 0 1001.7 997.9 +1.0 +7.4
07 9.12 СЗ 15
{24}
н/о н/о +7.1 +0.8 64 +1 +1 1002.1 998.3
08 9.12 СЗ 16
{20}
н/о н/о +6.9 +0.2 62 0 0 1002.7 998.9
09 9.12 З 15
{24}
н/о н/о +5.5 +0.2 69 -2 -2 1003.3 999.5
10 9.12 СЗ 16
{23}
н/о н/о +6.2 +0.1 65 -1 -1 1003.5 999.8
11 9.12 З 12
{20}
н/о н/о +5.9 +0.3 67 -0 -0 1003.8 1000.0
12 9.12 З 15
{24}
н/о н/о +6.1 +0.1 65 -1 -1 1003.9 1000.1
13 9.12 З 14
{17}
н/о н/о +6.2 +0.1 65 -0 -0 1003.9 1000.1
14 9.12 СЗ 18
{24}
н/о н/о +4.7 +1.3 79 -3 -3 1003.6 999.8
15 9.12 З 14
{24}
н/о н/о +4.4 -0.4 71 -3 -3 1003.6 999.8
16 9.12 З 16
{21}
н/о н/о +4.1 +0.6 78 -4 -4 1003.1 999.3
17 9.12 З 13
{19}
н/о н/о +4.2 +0.8 79 -3 -3 1003.0 999.2
18 9.12 ЮЗ 13
{24}
н/о н/о +2.3 +1.6 95 -6 -6 1002.6 998.7 +2.1 +7.4
19 9.12 ЮЗ 14
{24}
н/о н/о +2.3 +1.6 95 -6 -6 1002.2 998.4
20 9.12 ЮЗ 15
{20}
н/о н/о +1.8 +1.6 99 -7 -7 1001.8 998.0
21 9.12 ЮЗ 15
{24}
н/о н/о +1.4 +1.1 98 -8 -8 1001.5 997.6
22 9.12 ЮЗ 15
{19}
н/о н/о +1.2 +1.1 99 -8 -8 1001.0 997.2
23 9.12 ЮЗ 16
{20}
н/о н/о +1.7 +0.4 91 -8 -8 1000.2 996.4
00 10.12 ЮЗ 17
{24}
н/о н/о +1.5 +0.1 90 -8 -8 999.4 995.6
01 10.12 ЮЗ 15
{19}
н/о н/о +1.6 -0.3 87 -7 -7 998.4 994.6
02 10.12 ЮЗ 15
{19}
н/о н/о +1.6 +0.2 90 -7 -7 997.9 994.0
03 10.12 ЮЗ 14
{21}
н/о н/о +1.4 -0.4 88 -7 -7 997.1 993.3
04 10.12 ЮЗ 16
{18}
н/о н/о +1.2 -0.2 90 -8 -8 996.2 992.3
05 10.12 ЮЗ 15
{19}
н/о н/о +1.3 -0.1 90 -8 -8 994.9 991.0
06 10.12 ЮЗ 15
{21}
н/о н/о +1.4 -0.6 87 -8 -8 993.8 990.0 +0.9 +4.7
07 10.12 ЮЗ 14
{18}
н/о н/о +1.3 -0.5 88 -8 -8 992.4 988.6
08 10.12 Ю 14
{17}
н/о н/о +1.5 -0.4 87 -7 -7 991.4 987.6
09 10.12 Ю 13
{18}
н/о н/о +1.0 -0.9 87 -8 -8 990.2 986.4
10 10.12 Ю 11
{15}
н/о н/о +1.0 -1.3 85 -7 -7 988.9 985.1
11 10.12 Ю 10
{14}
н/о н/о +0.9 -1.2 86 -7 -7 986.9 983.1
12 10.12 Ю 10
{18}
н/о н/о +1.1 -0.6 88 -7 -7 985.1 981.3
13 10.12 ЮВ 10 н/о н/о +1.4 0.0 90 -6 -6 983.4 979.7
14 10.12 ЮВ 10
{13}
н/о н/о +1.6 -0.3 87 -6 -6 981.7 977.9
15 10.12 ЮВ 12
{15}
н/о н/о +1.0 -0.7 88 -8 -8 981.2 977.4
16 10.12 ЮВ 12
{15}
н/о н/о +1.0 -0.1 92 -8 -8 979.9 976.1
17 10.12 В 12
{15}
н/о н/о +0.9 -0.9 88 -8 -8 978.6 974.8
18 10.12 В 14
{16}
н/о н/о +0.7 -0.8 90 -8 -8 977.4 973.7 +0.6 +1.7
19 10.12 В 15
{18}
н/о н/о +0.4 -1.7 86 -9 -9 976.6 972.8
20 10.12 В 14
{18}
н/о н/о +0.4 -1.0 90 -9 -9 976.3 972.6
21 10.12 В 13
{18}
н/о н/о +0.1 -1.5 89 -9 -9 976.0 972.2
22 10.12 В 12
{15}
н/о н/о +0.3 -1.5 88 -8 -8 976.6 972.9
23 10.12 СВ 12
{14}
н/о н/о +0.1 -1.1 92 -9 -9 976.6 972.8
00 11.12 СВ 11
{18}
н/о н/о +0.3 -1.4 88 -8 -8 977.5 973.7
01 11.12 СВ 8
{13}
н/о н/о +0.5 -2.2 82 -7 -7 979.2 975.5
02 11.12 С 8 н/о н/о +0.9 -2.1 80 -6 -6 981.3 977.6
03 11.12 С 8
{13}
н/о н/о +1.1 -2.7 76 -6 -6 982.6 978.8
04 11.12 СВ 8 н/о н/о +1.3 -2.4 76 -6 -6 982.9 979.1
05 11.12 С 5 н/о н/о +2.0 -2.0 75 -3 -3 986.1 982.4
06 11.12 СВ 9
{13}
н/о н/о +2.1 -2.3 73 -5 -5 984.7 981.0 -0.1 +2.3
07 11.12 СВ 7 н/о н/о +2.1 -2.1 74 -4 -4 984.7 980.9
08 11.12 В 8 н/о н/о +1.8 -1.6 78 -5 -5 985.5 981.8
09 11.12 В 7 н/о н/о +1.8 -1.3 80 -5 -5 986.6 982.9
10 11.12 В 8 н/о н/о +1.7 -1.6 79 -5 -5 987.6 983.8
11 11.12 В 8 н/о н/о +1.6 -1.5 80 -5 -5 986.8 983.0
12 11.12 В 8 н/о н/о +1.8 -0.7 83 -5 -5 986.2 982.5
13 11.12 В 8 н/о н/о +1.7 -0.4 86 -5 -5 985.1 981.3
14 11.12 СВ 10 н/о н/о +1.7 -0.1 88 -6 -6 984.0 980.3
15 11.12 СВ 12
{14}
н/о н/о +1.8 +0.2 89 -6 -6 983.4 979.6
16 11.12 СВ 11
{13}
н/о н/о +1.4 +1.0 97 -7 -7 983.3 979.6
17 11.12 СВ 13
{15}
н/о н/о +1.2 +1.1 99 -8 -8 983.1 979.3
18 11.12 СВ 16
{18}
н/о н/о +1.7 +1.5 99 -8 -8 982.9 979.1 +1.1 +2.3
19 11.12 СВ 17
{20}
н/о н/о +1.5 +1.5 100 -8 -8 982.4 978.7
20 11.12 СВ 16
{20}
н/о н/о +1.4 +1.1 98 -8 -8 983.0 979.2
21 11.12 СВ 15
{20}
н/о н/о +1.3 +1.3 100 -8 -8 983.4 979.6
22 11.12 С 16
{18}
н/о н/о +1.7 +1.1 96 -8 -8 983.3 979.6
23 11.12 СВ 15
{18}
н/о н/о +1.7 +1.6 99 -7 -7 983.7 979.9
00 12.12 СВ 15
{20}
н/о н/о +1.9 +1.3 96 -7 -7 984.0 980.3
01 12.12 С 14
{17}
н/о н/о +1.7 +0.7 93 -7 -7 984.8 981.0
02 12.12 С 14
{16}
н/о н/о +1.9 +1.0 94 -7 -7 986.0 982.3
03 12.12 С 11
{18}
н/о н/о +2.6 +0.8 88 -5 -5 987.2 983.4
04 12.12 С 11
{14}
н/о н/о +3.1 0.0 80 -4 -4 988.1 984.3
05 12.12 С 12
{13}
н/о н/о +3.7 +0.6 80 -4 -4 989.8 986.0
06 12.12 С 10
{18}
н/о н/о +3.9 +0.8 80 -3 -3 991.2 987.4 +1.1 +4.0
07 12.12 С 10
{13}
н/о н/о +4.0 +1.0 81 -3 -3 993.0 989.2
08 12.12 С 8
{14}
н/о н/о +3.5 +1.4 86 -3 -3 994.8 991.0
09 12.12 С 11
{15}
н/о н/о +3.6 +0.7 81 -4 -4 996.4 992.6
10 12.12 С 10
{16}
н/о н/о +3.6 +0.7 81 -3 -3 998.3 994.5
11 12.12 С 8 н/о н/о +4.5 +0.8 77 -1 -1 999.6 995.8
12 12.12 СЗ 8
{16}
н/о н/о +3.0 +0.8 85 -4 -4 1001.0 997.2
13 12.12 СЗ 4
{13}
н/о н/о +4.0 +1.7 85 -0 -0 1002.3 998.4
14 12.12 СЗ 3 н/о н/о +4.4 +1.5 81 +1 +1 1003.3 999.5
15 12.12 З 9
{13}
н/о н/о +5.8 -1.6 59 0 0 1004.6 1000.8
16 12.12 З 9 н/о н/о +6.0 -0.6 63 +1 +1 1005.7 1001.9
17 12.12 ЮЗ 11
{13}
н/о н/о +4.1 +2.3 88 -3 -3 1006.5 1002.7
19 12.12 ЮЗ 11
{13}
н/о н/о +3.6 +1.2 84 -4 -4 1007.8 1004.0
20 12.12 ЮЗ 11
{13}
н/о н/о +3.6 +1.2 84 -4 -4 1007.8 1004.0
21 12.12 ЮЗ 12
{15}
н/о н/о +2.4 +1.4 93 -6 -6 1008.0 1004.2
22 12.12 ЮЗ 12
{15}
н/о н/о +1.9 +1.1 94 -6 -6 1008.1 1004.2
23 12.12 ЮЗ 13
{15}
н/о н/о +1.5 +0.8 95 -7 -7 1008.4 1004.6
00 13.12 ЮЗ 17
{19}
н/о н/о +1.2 +0.6 96 -9 -9 1008.2 1004.3
01 13.12 ЮЗ 14
{19}
н/о н/о +1.5 +0.8 95 -7 -7 1007.8 1003.9
02 13.12 ЮЗ 14
{17}
н/о н/о +1.7 +0.6 92 -7 -7 1007.4 1003.6
03 13.12 Ю 12
{19}
н/о н/о +1.9 +1.0 94 -6 -6 1006.7 1002.8
04 13.12 Ю 14
{17}
н/о н/о +2.2 +0.6 89 -6 -6 1005.7 1001.9
05 13.12 Ю 14
{17}
н/о н/о +2.2 +0.4 88 -6 -6 1004.6 1000.8
06 13.12 Ю 15
{19}
н/о н/о +2.4 +0.4 87 -6 -6 1003.2 999.4 +1.0 +4.2
07 13.12 Ю 14
{18}
н/о н/о +2.7 +0.7 87 -6 -6 1002.5 998.7
08 13.12 Ю 16
{19}
н/о н/о +2.2 +0.5 89 -7 -7 1001.4 997.5
09 13.12 Ю 16
{20}
н/о н/о +2.8 +1.2 89 -6 -6 1000.0 996.2
10 13.12 Ю 16
{20}
н/о н/о +2.4 +1.1 91 -7 -7 998.5 994.7
11 13.12 Ю 17
{22}
н/о н/о +2.2 +1.2 93 -7 -7 996.9 993.1
12 13.12 Ю 15
{22}
н/о н/о +2.0 +1.6 97 -7 -7 995.6 991.7
13 13.12 Ю 16
{19}
н/о н/о +2.1 +1.8 98 -7 -7 993.9 990.1
14 13.12 Ю 15
{19}
н/о н/о +2.3 +1.8 96 -7 -7 992.7 988.9
15 13.12 Ю 14
{21}
н/о н/о +2.2 +1.7 96 -7 -7 991.9 988.1
16 13.12 Ю 12
{16}
н/о н/о +2.1 +1.7 97 -6 -6 991.1 987.3
17 13.12 ЮЗ 12
{14}
н/о н/о +2.8 +2.7 99 -5 -5 990.0 986.2
18 13.12 ЮЗ 13
{21}
н/о н/о +3.1 +3.1 100 -5 -5 989.0 985.2 +1.5 +3.4
19 13.12 Ю 12
{16}
н/о н/о +3.6 +3.6 100 -4 -4 987.6 983.9
20 13.12 Ю 13
{15}
н/о н/о +4.4 +3.9 97 -3 -3 986.0 982.2
21 13.12 Ю 12
{16}
н/о н/о +4.5 +3.8 95 -3 -3 984.2 980.5
22 13.12 Ю 13
{16}
н/о н/о +4.0 +3.8 99 -4 -4 981.9 978.2
23 13.12 Ю 14
{16}
н/о н/о +3.7 +3.7 100 -5 -5 980.1 976.4
00 14.12 ЮЗ 14
{18}
н/о н/о +4.5 +3.8 95 -3 -3 979.0 975.3
01 14.12 З 17
{26}
н/о н/о +5.7 +2.7 81 -2 -2 979.5 975.8
02 14.12 З 13
{19}
н/о н/о +5.0 +3.5 90 -2 -2 980.4 976.7
03 14.12 З 17
{26}
н/о н/о +6.9 +2.1 71 0 0 980.5 976.8
04 14.12 З 15
{21}
н/о н/о +4.5 +1.6 81 -3 -3 981.9 978.2
05 14.12 З 13
{18}
н/о н/о +5.3 +2.4 82 -2 -2 982.3 978.6
06 14.12 ЮЗ 13
{26}
н/о н/о +4.1 +2.5 89 -4 -4 983.0 979.3 +2.8 +7.0
07 14.12 ЮЗ 14
{16}
н/о н/о +3.9 +2.4 90 -4 -4 983.6 979.9
08 14.12 ЮЗ 15
{19}
н/о н/о +3.0 +2.2 94 -6 -6 984.4 980.7
09 14.12 ЮЗ 15
{20}
н/о н/о +3.4 +2.4 93 -5 -5 985.3 981.6
10 14.12 ЮЗ 14
{16}
н/о н/о +2.5 +1.9 96 -6 -6 986.1 982.3
11 14.12 ЮЗ 15
{18}
н/о н/о +2.0 +2.0 100 -7 -7 986.2 982.5
12 14.12 13 н/о 986.5 982.7
13 14.12 ЮЗ 14
{17}
н/о н/о +3.4 +1.6 88 -5 -5 986.4 982.7
14 14.12 ЮЗ 12
{15}
н/о н/о +4.1 +2.3 88 -3 -3 986.7 983.0
15 14.12 ЮЗ 11
{19}
н/о н/о +4.0 +2.5 90 -3 -3 987.0 983.2
16 14.12 ЮЗ 11
{13}
н/о н/о +3.9 +2.1 88 -3 -3 987.2 983.4
17 14.12 ЮЗ 11
{13}
н/о н/о +3.4 +2.2 92 -4 -4 987.2 983.4
18 14.12 ЮЗ 12
{19}
н/о н/о +3.4 +2.3 92 -4 -4 987.3 983.5 +1.6 +6.0
19 14.12 ЮЗ 10
{13}
н/о н/о +3.3 +2.2 92 -4 -4 987.3 983.6
20 14.12 ЮЗ 11
{14}
н/о н/о +3.9 +2.8 93 -3 -3 987.7 983.9
21 14.12 ЮЗ 11
{14}
н/о н/о +3.7 +2.5 92 -4 -4 987.7 983.9
22 14.12 ЮЗ 12
{15}
н/о н/о +3.6 +2.3 91 -4 -4 987.3 983.6
23 14.12 ЮЗ 11
{14}
н/о н/о +3.1 +2.1 93 -4 -4 987.8 984.1
00 15.12 ЮЗ 10
{15}
н/о н/о +2.9 +2.0 94 -5 -5 988.0 984.2
01 15.12 ЮЗ 10
{13}
н/о н/о +2.6 +1.7 94 -5 -5 988.1 984.3
02 15.12 ЮЗ 9 н/о н/о +2.6 +1.6 93 -5 -5 988.8 985.1
03 15.12 ЮЗ 8
{13}
н/о н/о +2.4 +1.3 92 -4 -4 989.1 985.3
04 15.12 ЮЗ 8 н/о н/о +2.3 +1.5 94 -5 -5 989.5 985.8
05 15.12 ЮЗ 9 н/о н/о +2.3 +1.4 94 -5 -5 990.2 986.4
06 15.12 ЮЗ 8
{13}
н/о н/о +2.9 +1.8 92 -4 -4 990.6 986.8 +2.2 +3.9
07 15.12 ЮЗ 9 н/о н/о +2.5 +1.8 95 -5 -5 991.5 987.7
08 15.12 ЮЗ 9 н/о н/о +2.5 +1.6 94 -5 -5 992.2 988.5
09 15.12 ЮЗ 8 н/о н/о +2.1 +1.6 96 -5 -5 993.1 989.3
10 15.12 ЮЗ 8 н/о н/о +2.2 +1.8 97 -5 -5 994.0 990.2
11 15.12 ЮЗ 6 н/о н/о +2.3 +1.9 97 -4 -4 994.4 990.6
12 15.12 ЮЗ 7 н/о н/о +2.0 +1.6 97 -5 -5 994.9 991.1
13 15.12 ЮЗ 7 н/о н/о +2.3 +1.6 95 -4 -4 995.4 991.6

 

Местоположение метеостанции Leuchtturm Alte Weser (Германия): широта 53.87 долгота 8.13 высота над уровнем моря 32 м.

В архиве по умолчанию представлена погода в Leuchtturm Alte Weser за последнюю неделю. Архивные данные за месяц целиком и за предыдущие месяцы, начиная с января 2011 года, Вы можете получить, выбрав интересующий диапазон дат из раскрывающегося списка и нажав кнопку "Ввод!".

Внимание! Время в таблицах - всемирное. Для получения местного времени необходимо прибавить поправку, которая в Leuchtturm Alte Weser равна 1 ч.

Смотрите также архив погоды в соседних городах и на ближайших метеорологических станциях:

Погода в Nordholz (Германия) (37 км)
Погода в Cuxhaven (Германия) (37 км)
Погода в Helgoland (Германия) (38 км)
Погода в Wittmundhaven (Германия) (47 км)
Погода в Bremerhaven (Германия) (48 км)
Погода в Ufs Deutsche Bucht (Германия) (57 км)
Погода в St Peter-Ording (Германия) (60 км)
Погода в Elpersbuettel (Германия) (62 км)
Погода в Norderney Island (Германия) (67 км)
Погода в Bremervoerde (Германия) (80 км)

Пояснения к столбцам:

Ветер - указаны скорость ветра в м/с - средняя за 10 мин, порывы в срок и между сроками (в фигурных скобках) и направление, откуда дует ветер: С - северный, СВ - северо-восточный, В - восточный, ЮВ - юго-восточный, Ю - южный, ЮЗ - юго-западный, З - западный, СЗ - северо-западный.
Видимость - горизонтальная дальность видимости в метрах или километрах. При видимости от 1 до 10 км при отсутствии осадков обычно наблюдается дымка, при ухудшении видимости до 1 км и менее - туман. В сухую погоду видимость может ухудшаться дымом, пылью или мглою.
Явления - указаны атмосферные явления, наблюдавшиеся в срок или в последний час перед сроком; фигурными скобками обозначены явления, наблюдавшиеся между сроками (за 1-3 часа до срока); квадратными скобками обозначены град или гололедные отложения с указанием их диаметра в мм.
Облачность - указаны через наклонную черту общая и нижняя облачность в баллах и высота нижней границы облаков в метрах; квадратными скобками обозначены формы облаков: Ci - перистые, Cs - перисто-слоистые, Cc - перисто-кучевые, Ac - высококучевые, As - высокослоистые, Sc - слоисто-кучевые, Ns - слоисто-дождевые, Cu - кучевые, Cb - кучево-дождевые. Подробнее классификацию облаков см. в Атласе облаков (PDF).
T - Температура воздуха - температура, измеренная на высоте 2 м над землей.
Td - Температура точки росы - температура, при понижении до которой содержащийся в воздухе водяной пар достигнет насыщения.
f - Относительная влажность воздуха - влажноcть воздуха, измеренная на высоте 2 м над землей.
Te - Эффективная температура - температура, которую ощущает одетый по сезону человек в тени. Характеристика душности погоды. При расчете учитывается влияние влажности воздуха и скорости ветра на теплоощущения человека.
Tes - Эффективная температура на солнце - температура, которую ощущает человек, с поправкой на солнечный нагрев. Характеристика знойности погоды. Зависит от высоты солнца над горизонтом, облачности и скорости ветра. Ночью, в пасмурную погоду, а также при ветре 12 м/с и более поправка равна нулю.
P - Атмосферное давление - приведенное к уровню моря атмосферное давление.
Po - Атмосферное давление - измеренное на уровне метеостанции атмосферное давление.
Tmin - Минимальная температура - минимум температуры воздуха на высоте 2 м над землей.
Tmax - Максимальная температура - максимум температуры воздуха на высоте 2 м над землей.
R - Количество осадков - Количество выпавших осадков за период времени, мм. При наведении курсора мыши на число - период времени, за который выпало указанное количество осадков.
R24 - Количество осадков - Количество выпавших осадков за 24 часа, мм.
S - Снежный покров - Высота снежного покрова, см. При наведении курсора мыши на число - состояние снежного покрова и степень покрытия местности в баллах.